TimeCDT,TemperatureF,Dew PointF,Humidity,Sea Level PressureIn,VisibilityMPH,Wind Direction,Wind SpeedMPH,Gust SpeedMPH,PrecipitationIn,Events,Conditions,WindDirDegrees,DateUTC
12:54 AM,72.0,62.1,71,29.97,10.0,SSW,9.2,-,N/A,,Clear,200,2013-07-06 05:54:00
1:54 AM,72.0,62.1,71,29.97,10.0,South,10.4,-,N/A,,Clear,190,2013-07-06 06:54:00
2:54 AM,71.1,62.1,73,29.98,10.0,SSW,10.4,-,N/A,,Clear,200,2013-07-06 07:54:00
3:54 AM,70.0,61.0,73,29.97,10.0,SSW,6.9,-,N/A,,Clear,200,2013-07-06 08:54:00
4:54 AM,66.9,61.0,81,29.98,9.0,SSW,3.5,-,N/A,,Clear,210,2013-07-06 09:54:00
5:54 AM,66.9,61.0,81,29.99,7.0,South,6.9,-,N/A,,Clear,170,2013-07-06 10:54:00
6:54 AM,68.0,61.0,78,29.99,7.0,SE,5.8,-,N/A,,Clear,140,2013-07-06 11:54:00
7:54 AM,71.1,62.1,73,29.99,8.0,South,5.8,-,N/A,,Clear,190,2013-07-06 12:54:00
8:54 AM,75.0,62.1,64,29.98,10.0,SW,5.8,-,N/A,,Clear,220,2013-07-06 13:54:00
9:54 AM,78.1,62.1,58,29.98,10.0,SSW,9.2,-,N/A,,Clear,210,2013-07-06 14:54:00
10:54 AM,81.0,61.0,50,29.97,10.0,SW,13.8,-,N/A,,Clear,220,2013-07-06 15:54:00
11:54 AM,82.9,63.0,51,29.97,10.0,South,8.1,-,N/A,,Clear,190,2013-07-06 16:54:00
12:54 PM,84.0,63.0,49,29.96,10.0,South,8.1,-,N/A,,Clear,180,2013-07-06 17:54:00
1:54 PM,84.9,62.1,46,29.95,10.0,South,8.1,-,N/A,,Clear,180,2013-07-06 18:54:00
2:54 PM,86.0,61.0,43,29.95,10.0,SSW,9.2,-,N/A,,Clear,210,2013-07-06 19:54:00
3:54 PM,87.1,60.1,40,29.94,10.0,South,10.4,-,N/A,,Partly Cloudy,190,2013-07-06 20:54:00
4:54 PM,86.0,62.1,44,29.93,10.0,South,9.2,-,N/A,,Clear,180,2013-07-06 21:54:00
5:54 PM,86.0,57.0,37,29.92,10.0,South,13.8,-,N/A,,Clear,170,2013-07-06 22:54:00
6:54 PM,84.0,61.0,46,29.91,10.0,SSW,8.1,-,N/A,,Clear,200,2013-07-06 23:54:00
7:54 PM,82.0,61.0,49,29.91,10.0,South,8.1,-,N/A,,Clear,190,2013-07-07 00:54:00
8:54 PM,79.0,63.0,58,29.92,10.0,South,6.9,-,N/A,,Clear,180,2013-07-07 01:54:00
9:54 PM,75.9,63.0,64,29.95,10.0,South,5.8,-,N/A,,Clear,190,2013-07-07 02:54:00
10:54 PM,73.9,64.0,71,29.94,10.0,South,4.6,-,N/A,,Clear,180,2013-07-07 03:54:00
11:54 PM,73.0,64.0,73,29.94,10.0,South,6.9,-,N/A,,Clear,180,2013-07-07 04:54:00